STARLINK-3079, 49433

Orbit data source: Space-Track

STARLINK-3079, 49433 is a payload satellite owned by SpaceX/Seattle (US) in LEO that was launched on Sat, 13 Nov 2021 UTC via an FALCON 9 launch vehicle from the Air Force Eastern Test Range (AFETR). Payload-class satellites include a variety of spacecraft equipped with specific instruments for various scientific and technological missions. These include communications satellites like Starlink; space stations such as the ISS; scientific satellites like the Hubble; Earth observation satellites from companies like Planet Labs, Umbra, and HawkEye 360; GPS; miniature CubeSats for education and research; and military/defense satellites.

Loading next visibility...
Identifier
49433, 2021-104AB
Orbit
LEO
Country
Flag of USUS
Related business
Manufacturer
SpaceX/Seattle
Mission
Operational Commercial Communications
Bus & Motor
STARLINK, Unknown motor
Mass
290 kg wet, ~270 kg dry
Launch date (UTC)
2021-11-13 (5 years ago)
Launch vehicle
FALCON 9
Launch site
Air Force Eastern Test Range (AFETR)
Object type
Payload
Rocket body
Debris
Shape & HBR
Box + 1 Pan, 10.1 m
Radar Cross Section
13.562 m², Large (>1 m²)

Expand to show TLE details & history
Last TLE update: 1 week ago

TLE from 1 week ago
0 STARLINK-3079
1 49433U 21104AB  26154.28121795  .00000126  00000-0  25990-4 0  9992
2 49433  53.1851 184.8657 0001086  95.9786 264.1330 15.08835734252929
Epoch: 2026-06-03T06:44Z
TLE epoch observation values (Epoch: 2026-06-03T06:44:57.230Z)
Latitude
-0°
Longitude
-168.11485°
Altitude
540.727 km
Speed
7.593 km/s
True Right ascension
12h 19m 27s
True Declination
0° 00' 00"
Sunlit
Object was in daylight at epoch
Visualization orbit readout
Latitude
Unknown
Longitude
Unknown
Altitude
Unknown
Speed
Unknown
Apparent Right ascension
Unknown
Apparent Declination
Unknown
Sunlit
N/A
Visualization observer readout
Local Sidereal Time
13:23:52
Azimuth
Unknown
Elevation
Unknown
Doppler factor
Unknown
Orbital elements
Apogee altitude
540.758 km
Perigee altitude
539.255 km
Semi-major axis
6,918.144 km
Eccentricity
0.00011
Inclination
53.1851°
RAAN
184.8657°
Arg. of periapsis
95.9786°
True anomaly
264.12062°
Mean anomaly
264.133°
Eccentric anomaly
264.12681°
Mean motion
3.77189 °/min
Orbital period
95.44 mins
BSTAR
0.00002599
Loading maneuver chart data...
Computing Atmospheric mass density...
Loading historical data...
Loading historical data...
Loading historical data...
Loading historical data...
Loading historical data...
Loading historical data...
Loading historical data...

Documentation

Showing up to 5 results
|